{"data":{"norad_id":55492,"intl_designator":"2023-015AV","name":"STARLINK-5013","alt_names":[],"object_type":"PAYLOAD","status":"ACTIVE","operator":null,"country":"US","launch_date":"2023-02-02","launch_site_code":"AFETR","launch_vehicle":null,"mission":null,"orbit_class":"UNKNOWN","rcs_meters":null,"size_class":null,"mass_kg":null,"dimensions":null,"purposes":["comms"],"wikipedia_slug":null,"has_3d_model":false,"image_url":null,"decayed_at":null,"tle_current":{"epoch":"2026-05-25T01:19:34.726656Z","epoch_age_seconds":74313,"freshness":"FRESH","line1":"1 55492U 23015AV  26145.05526304 -.00000229  00000+0  11925-5 0  9995","line2":"2 55492  43.0035 268.5103 0001203 273.4350  86.6364 15.27575494182279","mean_motion":15.27575494,"eccentricity":0.0001203,"inclination_deg":43.0035,"raan_deg":268.5103,"arg_perigee_deg":273.435,"mean_anomaly_deg":86.6364,"bstar":1.1925e-6,"rev_number":18227,"period_min":94.267026779103,"perigee_km":482.23718634733,"apogee_km":483.88799096836,"semimajor_km":6861.1995886578,"source":"CELESTRAK","updated_at":"2026-05-25T13:38:17.811617Z"}}}